Weather in Yeongam

South Korea     34°48′01″N   126°41′36″E
temp.,
°C
wind,
m/s
gust,
m/s
humid.,
%
clouds,
%
prec.,
mm/h
press.,
hPa
HPBL,
m
18 january, mon
mon1800:00−2sse1190100 0.3 102652
03:00−2sw019899 0.8 102471
06:00−1s2591100 1.7 1022177
09:00+3w61271100 2.7 10211386
12:00+5w91359100 0.4 10201791
15:00+6wnw11165384 0.4 10192188
18:00+1nw6145933 0.0 10221190
21:00−1nnw8146417 0.0 10261130
19 january, tue
tue1900:00−4nnw7127426 0.0 10281043
03:00−5nnw4107724 0.0 1029761
06:00−7n27703 0.0 1030492
09:00−6nnw25521 0.0 1032378
12:000n36260 0.0 1032539
15:00+3n35230 0.0 1030586
18:00−2n22410 0.0 103124
21:00−3e11440 0.0 103221
20 january, wed
wed2000:00−3ese12450 0.0 103221
03:00−3e12470 0.0 103122
06:00−2ene12540 0.0 103021
09:000ese22560 0.0 103167
12:00+7se234952 0.0 1030518
15:00+8sse235475 0.0 1028590
18:00+2ese1277100 0.0 102822
21:00+1e2375100 0.0 102831
21 january, thu
thu2100:00+1ese2286100 0.0 102731
03:00+2e238996 0.0 102641
06:00+3ese2390100 0.0 102444
09:00+5e238893 0.0 102495
12:00+10ese2380100 0.0 1022220
15:00+9ese2290100 0.3 101942
18:00+7e2297100 2.3 101843
21:00+7sse1298100 3.1 101934
22 january, fri
fri2200:00+9w2399100 0.3 101894
03:00+7nw269996 0.3 1019310
06:00+6nnw489489 0.0 1019541
09:00+5nnw598393 0.0 1021597
12:00+8nnw587114 0.0 1021698
15:00+8nw566251 0.0 1020753
18:00+4nnw487790 0.0 1020429
21:00+2nnw238695 0.0 1021131